Regional Weather Roundup
Issued by NWS Sterling, VA

Home | Current Version | Previous Version | Graphics & Text | Print | Product List | Glossary On
Versions: 1 2 3 4 5 6 7 8 9 10 11 12 13 14 15 16 17 18 19 20 21 22 23 24 25 26 27 28 29 30 31 32 33 34 35 36 37 38 39 40 41 42 43 44 45 46 47 48 49 50
621
ASUS41 KLWX 270011
RWRLWX

REGIONAL WEATHER ROUNDUP
NATIONAL WEATHER SERVICE BALTIMORE MD/WASHINGTON DC
800 PM EDT MON JUN 26 2017

Note: "FAIR" indicates few or no clouds below 12,000 feet
with no significant weather and/or obstructions to visibility.
 TC=TEMPERATURE CELSIUS

 * =Non NWS site. Station does not report precipitation (e.g. rain,
    snow, etc.), thunder, or fog.

DCZ001-MDZ009-015-VAZ040>042-051-053>054-270100-
WASHINGTON METRO

CITY           SKY/WX    TMP DP  RH WIND       PRES   REMARKS
WASHINGTON NAT PTCLDY    79  55  43 S13       29.99S
DULLES         PTCLDY    77  49  37 S6        29.99S
ANDREWS AFB    CLEAR     77  51  41 S8        29.99S
FT BELVOIR     PTCLDY    77  54  45 SE6       29.98S
QUANTICO       CLEAR     80  55  42 SW7       29.99S
COLLEGE PARK*  PTCLDY    79  47  32 S3        29.98S
LEESBURG*      PTCLDY    79  52  38 SW3       30.00S
MANASSAS*      MOCLDY    75  55  50 S5        29.98F
GAITHERSBURG*  MOCLDY    79  49  34 SW3       30.01S

$$

MDZ006>007-011-014-270100-
BALTIMORE METRO

CITY           SKY/WX    TMP DP  RH WIND       PRES   REMARKS
BWI AIRPORT    PTCLDY    77  49  37 SE5       29.98S
MD SCIENCE CTR   N/A     81  45  28 MISG      29.99S
MARTIN STATE   PTCLDY    79  54  41 S9        30.00S
ANNAPOLIS      CLEAR     74  57  55 S8        29.99S
FORT MEADE*    MOCLDY    72  55  56 SE3       30.01S

$$

MDZ012-015-019>023-270100-
MARYLAND EASTERN SHORE

CITY           SKY/WX    TMP DP  RH WIND       PRES   REMARKS
OCEAN CITY     PTCLDY    74  56  53 SW9       30.02F
SALISBURY      PTCLDY    76  56  49 S3        30.01S
BAY BRIDGE AP* CLEAR     79  52  38 S3        29.99F
CAMBRIDGE*     CLEAR     77  57  50 S5        30.00F
EASTON*        PTCLDY    81  50  34 CALM      30.03F

$$

MDZ017>025-270100-
SOUTHERN MARYLAND

CITY           SKY/WX    TMP DP  RH WIND       PRES   REMARKS
PATUXENT RIVER PTCLDY    76  57  51 S7        30.00F
ST INIGOES     PTCLDY    77  60  55 E3        29.99F
LEONARDTOWN*   CLEAR     73  57  56 SE3       30.02S

$$

MDZ003>005-270100-
NORTH CENTRAL MARYLAND

CITY           SKY/WX    TMP DP  RH WIND       PRES   REMARKS
FREDERICK*     CLEAR     77  46  33 S5        30.01F
HAGERSTOWN APT MOCLDY    76  50  40 S10       29.98F
WESTMINSTER*   CLEAR     79  52  38 SW6       30.00S

$$

MDZ501>502-270100-
WESTERN MARYLAND

CITY           SKY/WX    TMP DP  RH WIND       PRES   REMARKS
OAKLAND*       NOT AVBL
CUMBERLAND*    CLEAR     73  45  35 SW10G20   30.06R

$$

VAZ025>031-270100-
SHENANDOAH VALLEY

CITY           SKY/WX    TMP DP  RH WIND       PRES   REMARKS
WINCHESTER*    MOCLDY    73  52  46 W5        30.00S
FRONT ROYAL*   CLOUDY    73  54  49 S3        29.99S
LURAY*         CLOUDY    75  55  50 CALM      30.00R
NEW MARKET*    PTCLDY    73  46  38 NW6       30.00R
STAUNTON*      CLEAR     73  46  37 W5        30.04S
WAYNESBORO*    CLEAR     74  49  41 CALM      30.04R

$$

WVZ021-048>050-054>055-270100-
EASTERN WEST VIRGINIA PANHANDLE

CITY           SKY/WX    TMP DP  RH WIND       PRES   REMARKS
MARTINSBURG    CLEAR     73  54  51 S5        29.99R
PETERSBURG*    CLEAR     73  51  46 W10       30.04S

$$

VAZ036>039-050-270100-
CENTRAL FOOTHILLS

CITY           SKY/WX    TMP DP  RH WIND       PRES   REMARKS
CHARLOTTESVILL CLEAR     76  53  44 SW7       30.00S
CULPEPER*      CLEAR     77  55  45 S3        30.00R
ORANGE*        CLEAR     75  52  43 CALM      30.00R
GORDONSVILLE*  CLEAR     77  54  44 CALM      30.00R
WARRENTON*     PTCLDY    77  49  37 S3        29.99S

$$

VAZ055>057-270100-
NORTH AND CENTRAL PIEDMONT

CITY           SKY/WX    TMP DP  RH WIND       PRES   REMARKS
FREDERICKSBRG* CLEAR     80  53  40 S6        29.99R
STAFFORD*      CLEAR     76  52  42 CALM      30.03S

$$

NCZ024-NYZ072-PAZ021-071-VAZ022-071-270100-
OTHER REGIONAL OBSERVATIONS

CITY           SKY/WX    TMP DP  RH WIND       PRES   REMARKS
NEW YORK CITY  CLEAR     74  54  49 CALM      30.00S
PHILADELPHIA   PTCLDY    77  49  37 S8        29.99F
PITTSBURGH     CLOUDY    67  49  52 W6        30.02F
ROANOKE        PTCLDY    76  47  35 NW9       30.05S
RICHMOND       PTCLDY    77  54  44 SW8       30.00S
RALEIGH        PTCLDY    76  55  48 W3        30.04S

$$

ANZ530>537-270100-
MARINE OBSERVATIONS

STATION/POSITION TIME  TEMP    WIND        PRES
                       AIR SEA DIR/SP/G
                 (UTC) (F)     (DEG/KT/KT) (MB)
THOMAS PT LIGHT  0000   78 78  170/ 13/ 14   N/A
BALT KEY BRIDGE  2348   79     170/  8/ 11 1015.1F
COVE POINT       2348   77     190/ 13/ 15 1016.4F
LEWISETTA        2348   78 81  140/  7/  8 1015.6F
SOLOMONS ISLAND  2348          160/  8/ 10   N/A
PINEY POINT      2342          160/ 12/ 13   N/A

$$





USA.gov is the U.S. government's official web portal to all federal, state and local government web resources and services.